Location: Peebles
(55.6412°N, 3.1714°W)
Time: 22:26:07
(UTC+01:00)

USA 281 - Pass Details

Date: 01 February 2022
Orbit: 1070 x 1089 km, 106.0° (Epoch: 25 March)

Event Time Altitude Azimuth Distance (km) Brightness Sun altitude
Rises 01:50:54 0° 30° (NNE) 3,907 6.8 -48.3°
Reaches altitude 10° 01:53:34 10° 36° (NE) 2,948 6.0 -48.1°
Enters shadow 01:55:25 19° 44° (NE) 2,321 5.3 -47.9°
